[[{"header":{"parameterUnit":"m.s-1","parameterCategory":1,"la1":30.2992,"la2":30.254,"lo1":-89.0895,"lo2":-89.0443,"dy":0.0025,"dx":0.0025,"nx":19,"ny":19,"refTime":"2026-05-06T09:00:00:Z","depth":0,"parameterNumber":2,"parameterNumberName":"U-component_of_WINDS"},"data":[0,0,0,-0.4521,-0.4521,-0.4495,-0.4495,-0.4464,-0.4464,0,0,0,0,0,0,0,0,0,0,0,-0.453,-0.453,-0.4521,-0.4521,-0.4495,-0.4495,-0.4464,-0.4464,0,0,0,0,0,0,0,0,0,0,0,-0.453,-0.453,-0.453,-0.4521,-0.4495,-0.4495,-0.4464,-0.4483,0,0,0,0,0,0,0,0,0,0,-0.4508,-0.4517,-0.453,-0.453,-0.452,-0.4495,-0.4495,-0.4484,-0.4482,-0.4477,0,-0.4473,0,-0.4468,-0.4462,-0.4462,0,0,0,-0.452,-0.4519,-0.4511,-0.453,-0.452,-0.4495,-0.4506,-0.4483,-0.4481,-0.4475,-0.4472,-0.4471,-0.4468,-0.4462,-0.4462,-0.4438,-0.4438,0,0,-0.4521,-0.4526,-0.4512,-0.4509,-0.4513,-0.4507,-0.4505,-0.4481,-0.4479,-0.4472,-0.447,-0.4467,-0.4462,-0.4462,-0.4438,-0.4438,0,0,0,-0.4526,-0.4527,-0.452,-0.4511,-0.4506,-0.4506,-0.4504,-0.448,-0.4478,-0.447,-0.4467,-0.4462,-0.4461,-0.4438,-0.4438,-0.4439,0,0,0,-0.4527,-0.453,-0.452,-0.4523,-0.4506,-0.4493,-0.4504,-0.4479,-0.4476,-0.4467,-0.4462,-0.4461,-0.4438,-0.4438,-0.4439,-0.4439,0,0,0,-0.4531,-0.453,-0.4527,-0.4523,-0.4512,-0.4493,-0.4489,-0.4479,-0.4474,-0.4462,-0.4461,-0.4438,-0.4438,-0.4439,-0.4439,-0.4434,0,0,0,-0.4538,-0.4528,-0.4527,-0.4515,-0.4513,-0.4494,-0.4489,-0.4475,-0.4464,-0.4462,-0.4438,-0.4438,-0.4439,-0.4439,-0.4434,-0.4431,-0.443,0,0,-0.4528,-0.4527,-0.4519,-0.4518,-0.4501,-0.4498,-0.4481,-0.4466,-0.4461,-0.4446,-0.4445,-0.4439,-0.4439,-0.4434,-0.4424,-0.4423,0,0,0,-0.4518,-0.4513,-0.4507,-0.4498,-0.4487,-0.4478,-0.4466,-0.4461,-0.4449,-0.4454,-0.4436,-0.4436,-0.4433,-0.4431,-0.4431,-0.4428,-0.4437,-0.4437,-0.4437,-0.451,-0.4504,-0.4492,-0.4484,-0.4475,-0.4464,-0.4456,-0.4448,-0.4443,-0.444,-0.4435,-0.4429,-0.4427,-0.4427,-0.4424,-0.4433,-0.4433,-0.4433,-0.4433,-0.4495,-0.4487,-0.4484,-0.4471,-0.4465,-0.4454,-0.4444,-0.4442,-0.4431,-0.4432,-0.4429,-0.443,-0.4426,-0.4424,-0.4433,-0.4433,-0.4433,-0.4433,-0.4433,-0.4489,-0.4484,-0.4479,-0.4466,-0.4457,-0.445,-0.444,-0.4435,-0.443,-0.4428,-0.4423,-0.4423,-0.4422,-0.4426,-0.4426,-0.4426,-0.4426,-0.4426,-0.4426,-0.4485,-0.4479,-0.4471,-0.4461,-0.4455,-0.4447,-0.4438,-0.4432,-0.4425,-0.4422,-0.4422,-0.4419,-0.4427,-0.4429,-0.4426,-0.4426,-0.4426,-0.4426,-0.4426,-0.4471,-0.4474,-0.4462,-0.4457,-0.4445,-0.4438,-0.4432,-0.4422,-0.4416,-0.4412,-0.441,-0.4417,-0.4416,-0.4416,-0.4418,-0.4411,-0.4411,-0.4411,-0.4411,-0.4466,-0.4465,-0.4453,-0.4445,-0.4437,-0.4431,-0.442,-0.4413,-0.4406,-0.4403,-0.4403,-0.4405,-0.4406,-0.4404,-0.4405,-0.4406,-0.4397,-0.4397,-0.4397,-0.4458,-0.4457,-0.4447,-0.4441,-0.4432,-0.4425,-0.4414,-0.4405,-0.4398,-0.4396,-0.44,-0.4401,-0.4404,-0.4406,-0.4403,-0.4404,-0.4407,0,0]},{"header":{"parameterUnit":"m.s-1","parameterCategory":1,"la1":30.2992,"la2":30.254,"lo1":-89.0895,"lo2":-89.0443,"dy":0.0025,"dx":0.0025,"nx":19,"ny":19,"refTime":"2026-05-06T09:00:00:Z","depth":0,"parameterNumber":3,"parameterNumberName":"V-component_of_WINDS"},"data":[0,0,0,4.6625,4.6626,4.6671,4.6671,4.6737,4.6738,0,0,0,0,0,0,0,0,0,0,0,4.6619,4.6619,4.6625,4.6626,4.6671,4.6671,4.6737,4.6738,0,0,0,0,0,0,0,0,0,0,0,4.6618,4.6619,4.662,4.6626,4.6671,4.6671,4.6737,4.67,0,0,0,0,0,0,0,0,0,0,4.6654,4.6656,4.6619,4.662,4.6627,4.6671,4.6671,4.6698,4.6702,4.6721,0,4.6742,0,4.6741,4.6743,4.6743,0,0,0,4.662,4.6652,4.6658,4.662,4.6627,4.6671,4.6649,4.67,4.6705,4.6727,4.6743,4.6745,4.6742,4.6744,4.6744,4.688,4.6881,0,0,4.6618,4.663,4.6655,4.6662,4.6657,4.6648,4.665,4.6703,4.672,4.6743,4.6746,4.6743,4.6744,4.6745,4.6879,4.688,0,0,0,4.6615,4.6629,4.6633,4.6659,4.6667,4.6649,4.6652,4.6717,4.6718,4.6747,4.6744,4.6745,4.6746,4.6878,4.6879,4.6937,0,0,0,4.6613,4.6627,4.6632,4.664,4.6666,4.6693,4.6666,4.6714,4.672,4.6744,4.6745,4.6746,4.6877,4.6879,4.6933,4.6962,0,0,0,4.6613,4.6627,4.6636,4.6641,4.666,4.6692,4.6695,4.6715,4.6719,4.6743,4.6746,4.6876,4.6878,4.693,4.6957,4.7003,0,0,0,4.6617,4.6685,4.6637,4.6712,4.666,4.6728,4.6695,4.6744,4.6772,4.6745,4.6877,4.6879,4.6929,4.6953,4.6999,4.7044,4.7064,0,0,4.6709,4.6696,4.674,4.6698,4.6778,4.672,4.6807,4.682,4.681,4.6857,4.686,4.6935,4.6956,4.7002,4.7169,4.7184,0,0,0,4.6773,4.6804,4.6823,4.6851,4.6864,4.6878,4.6877,4.6882,4.6921,4.6838,4.6963,4.6975,4.7001,4.7022,4.7036,4.7058,4.6889,4.6889,4.6889,4.6921,4.6907,4.6978,4.6969,4.6997,4.6996,4.7017,4.7023,4.6999,4.7029,4.7043,4.7146,4.7171,4.7181,4.7204,4.7064,4.7065,4.7065,4.7065,4.7056,4.7099,4.7067,4.7124,4.7108,4.7155,4.7157,4.7138,4.718,4.7134,4.7156,4.7108,4.7199,4.7218,4.7069,4.7068,4.7068,4.7068,4.7067,4.7153,4.7171,4.7177,4.7217,4.725,4.7238,4.728,4.7263,4.7247,4.7269,4.7282,4.7281,4.7279,4.7276,4.7277,4.7277,4.7277,4.7278,4.7278,4.725,4.7256,4.7294,4.7315,4.7331,4.7351,4.7351,4.7366,4.7379,4.7363,4.7363,4.7336,4.721,4.7179,4.7283,4.7282,4.7282,4.7281,4.7281,4.7394,4.7359,4.7419,4.7436,4.7459,4.7493,4.7471,4.7504,4.7514,4.7535,4.7504,4.7413,4.7398,4.7387,4.7362,4.7506,4.7506,4.7506,4.7506,4.7476,4.7467,4.7525,4.7553,4.7579,4.7565,4.7632,4.7633,4.7628,4.7633,4.7609,4.7574,4.7563,4.7554,4.754,4.7516,4.7697,4.7697,4.7697,4.7564,4.7557,4.7618,4.7614,4.7631,4.7646,4.7709,4.7742,4.7728,4.7705,4.7637,4.7629,4.7571,4.7553,4.7528,4.7506,4.7462,0,0]}]]